This demonstration page uses our WeatherBlox Daily Observations layout. Learn more.

Left ArrowRight Arrow

41.55636, -103.73856

Hourly Observations for March 15, 2021

Temp ( °F °C ) Dew Point ( °F °C ) Humidity (%) Winds ( mph kmh ) Pressure ( in mb ) Visibility ( mi km ) Precip ( " mm )
12:58 am 00:58 Mostly Cloudy with Freezing Fog 24 -4.6 22 -5.6 93 93 N 13 20 30.00 1016 1 2 0.00 0.00
1:58 am 01:58 Mostly Cloudy with Freezing Fog 23 -4.8 22 -5.8 93 93 N 12 19 30.00 1016 3 5 0.00 0.00
2:58 am 02:58 Mostly Cloudy with Light Snow Showers 24 -4.6 22 -5.6 93 93 NNW 9 15 29.98 1015 0 0 0.00 0.00
3:58 am 03:58 Mostly Cloudy with Freezing Fog 23 -5 21 -6.1 92 92 NNW 7 11 29.96 1015 3 5 0.00 0.00
4:58 am 04:58 Cloudy with Freezing Fog 22 -5.5 20 -6.6 92 92 NNW 7 11 29.93 1014 3 5 0.00 0.00
5:58 am 05:58 Mostly Cloudy with Freezing Fog 21 -6 19 -7.1 92 92 NNW 5 7 29.93 1014 1 2 0.00 0.00
6:58 am 06:58 Mostly Cloudy with Freezing Fog 21 -6.2 19 -7.3 92 92 Calm 29.91 1013 1 2 0.00 0.00
7:58 am 07:58 Mostly Cloudy with Freezing Fog 21 -6.2 19 -7.4 91 91 W 3 6 29.91 1013 1 2 0.00 0.00
8:58 am 08:58 Mostly Cloudy with Freezing Fog 20 -6.4 19 -7.5 92 92 Calm 29.91 1013 0 0 0.00 0.00
9:58 am 09:58 Sunny 19 -7.5 16 -8.8 91 91 SW 3 6 29.91 1013 10 16 0.00 0.00
10:58 am 10:58 Cloudy with Light Snow 21 -6.3 19 -7.5 91 91 SSW 3 6 29.89 1012 3 4 0.00 0.00
11:58 am 11:58 Cloudy with Light Snow 23 -5 21 -6 93 93 SW 5 7 29.88 1012 5 8 0.02 0.51
12:58 pm 12:58 Cloudy with Snow 24 -4.3 22 -5.3 93 93 SSW 5 7 29.85 1011 1 2 0.02 0.51
1:58 pm 13:58 Cloudy with Light Snow 24 -4.2 23 -5.2 93 93 SW 7 11 29.84 1010 1 2 0.02 0.51
2:58 pm 14:58 Cloudy with Light Snow 25 -3.7 24 -4.6 94 94 SW 7 11 29.80 1009 2 4 0.01 0.25
3:58 pm 15:58 Cloudy with Light Snow 26 -3.1 25 -4 94 94 SW 8 13 29.80 1009 1 2 0.00 0.00
4:58 pm 16:58 Cloudy with Light Snow 26 -3.3 24 -4.3 93 93 SW 10 17 29.82 1010 1 2 0.00 0.00
5:58 pm 17:58 Cloudy with Snow 26 -3.5 24 -4.5 93 93 SW 12 19 29.84 1010 5 8 0.00 0.00
6:58 pm 18:58 Cloudy with Snow 25 -3.7 24 -4.6 94 94 SW 8 13 29.86 1011 1 1 0.01 0.25
7:58 pm 19:58 Cloudy with Light Snow 26 -3.6 24 -4.6 93 93 SW 8 13 29.87 1012 1 1 0.01 0.25
8:58 pm 20:58 Cloudy with Light Snow 26 -3.2 25 -4 94 94 WSW 6 9 29.88 1012 1 2 0.01 0.25
9:58 pm 21:58 Cloudy with Light Snow 28 -2.3 26 -3.1 94 94 NW 7 11 29.91 1013 7 11 0.01 0.25
10:58 pm 22:58 Cloudy with Light Snow 26 -3.2 25 -4.1 94 94 NNW 6 9 29.93 1013 3 4 0.02 0.51
11:58 pm 23:58 Mostly Cloudy with Light Snow 25 -3.8 24 -4.7 94 94 N 6 9 29.91 1013 5 8 0.00 0.00

Powered by AerisWeather